Regional Weather Roundup
Issued by NWS

Home | Current Version | Previous Version | Graphics & Text | Print | Product List | Glossary On
Versions: 1 2 3 4 5 6 7 8 9 10 11 12 13 14 15 16 17 18 19 20 21 22 23 24 25 26 27 28 29 30 31 32 33 34 35 36 37 38 39 40 41 42 43 44 45 46 47 48 49 50
000
ASUS43 KLMK 252002
RWRKY
KENTUCKY REGIONAL WEATHER ROUNDUP
NATIONAL WEATHER SERVICE LOUISVILLE KY
400 PM EDT SUN JUN 25 2017

NOTE "FAIR" INDICATES FEW OR NO CLOUDS BELOW 12,000 FEET
WITH NO SIGNIFICANT WEATHER AND/OR OBSTRUCTIONS TO VISIBILITY.

KYZ001>023-026-027-061>063-070>075-252100-
WESTERN AND SOUTH CENTRAL KENTUCKY

CITY           SKY/WX    TMP DP  RH WIND       PRES   REMARKS
PADUCAH        SUNNY     84  52  33 NW7       30.19F
HENDERSON      MOSUNNY   82  49  31 W9G18     30.16F
OWENSBORO      MOSUNNY   83  53  35 W14       30.16F
HOPKINSVILLE   SUNNY     81  48  32 W7        30.20F
BOWLING GREEN  SUNNY     81  51  35 W9G16     30.19F
GLASGOW        NOT AVBL
$$

KYZ024-025-028>034-038-045-046-053-252100-
NORTH CENTRAL KENTUCKY

CITY           SKY/WX    TMP DP  RH WIND       PRES   REMARKS
LOUISVILLE/SDF PTSUNNY   83  49  30 W14G26    30.14F
LOUISVILLE/LOU MOSUNNY   82  49  31 W14G25    30.14F
FORT KNOX      MOSUNNY   80  51  37 W12G20    30.14F
$$

KYZ035>037-039>044-047>052-055>060-089>105-252100-
NORTHEAST KENTUCKY

CITY           SKY/WX    TMP DP  RH WIND       PRES   REMARKS
LEXINGTON      MOSUNNY   76  46  34 W17       30.16F
COVINGTON      MOSUNNY   75  47  36 W12G25    30.12F
FRANKFORT      MOSUNNY   80  45  28 W10G21    30.14F
$$

KYZ054-064>069-076>088-106>120-252100-
SOUTHEAST KENTUCKY

CITY           SKY/WX    TMP DP  RH WIND       PRES   REMARKS
JACKSON        MOSUNNY   77  49  37 W8        30.18F
LONDON         SUNNY     77  43  29 W8        30.19F
SOMERSET       MOSUNNY   77  43  29 W6        30.20F
MIDDLESBORO    SUNNY     78  49  36 N8G18     30.18F
MONTICELLO     CLEAR     78  50  37 W12G18    30.21F
$$




USA.gov is the U.S. government's official web portal to all federal, state and local government web resources and services.